Time,TemperatureF,DewpointF,PressureIn,WindDirection,WindDirectionDegrees,WindSpeedMPH,WindSpeedGustMPH,Humidity,HourlyPrecipIn,Conditions,Clouds,dailyrainin,SoftwareType,DateUTC
2013-03-03 00:01:00,28.7,17.4,29.88,NNW,337,0.0,0.0,62,0.00,,,0.00,WUHU216DAVISVP2,2013-03-03 05:01:00,
2013-03-03 00:06:00,28.4,18.2,29.88,NNW,337,0.0,0.0,65,0.00,,,0.00,WUHU216DAVISVP2,2013-03-03 05:06:00,
2013-03-03 00:12:00,28.4,18.5,29.88,NNW,337,0.0,0.0,66,0.00,,,0.00,WUHU216DAVISVP2,2013-03-03 05:12:00,
2013-03-03 00:17:00,28.4,18.5,29.88,NNW,337,0.0,0.0,66,0.00,,,0.00,WUHU216DAVISVP2,2013-03-03 05:17:00,
2013-03-03 00:22:00,28.4,18.5,29.88,NNW,337,0.0,0.0,66,0.00,,,0.00,WUHU216DAVISVP2,2013-03-03 05:22:00,
2013-03-03 00:27:00,28.4,18.5,29.88,NNW,337,0.0,0.0,66,0.00,,,0.00,WUHU216DAVISVP2,2013-03-03 05:27:00,
2013-03-03 00:32:00,28.4,18.5,29.88,NNW,337,0.0,0.0,66,0.00,,,0.00,WUHU216DAVISVP2,2013-03-03 05:32:00,
2013-03-03 00:37:00,27.8,18.7,29.88,NNW,337,0.0,0.0,68,0.00,,,0.00,WUHU216DAVISVP2,2013-03-03 05:37:00,
2013-03-03 00:42:00,27.6,18.5,29.88,NNW,337,0.0,0.0,68,0.00,,,0.00,WUHU216DAVISVP2,2013-03-03 05:42:00,
2013-03-03 00:47:00,27.6,18.5,29.87,NNW,337,0.0,0.0,68,0.00,,,0.00,WUHU216DAVISVP2,2013-03-03 05:47:00,
2013-03-03 00:52:00,27.5,18.7,29.87,NNW,337,0.0,0.0,69,0.00,,,0.00,WUHU216DAVISVP2,2013-03-03 05:52:00,
2013-03-03 00:57:00,27.5,18.7,29.87,NNW,337,0.0,0.0,69,0.00,,,0.00,WUHU216DAVISVP2,2013-03-03 05:57:00,
2013-03-03 01:02:00,27.5,18.7,29.87,NNW,337,0.0,0.0,69,0.00,,,0.00,WUHU216DAVISVP2,2013-03-03 06:02:00,
2013-03-03 01:07:00,27.3,18.5,29.87,NNW,337,0.0,0.0,69,0.00,,,0.00,WUHU216DAVISVP2,2013-03-03 06:07:00,
2013-03-03 01:12:00,27.3,18.5,29.87,NNW,337,0.0,0.0,69,0.00,,,0.00,WUHU216DAVISVP2,2013-03-03 06:12:00,
2013-03-03 01:17:00,27.2,18.4,29.87,NNW,337,0.0,0.0,69,0.00,,,0.00,WUHU216DAVISVP2,2013-03-03 06:17:00,
2013-03-03 01:22:00,27.0,18.6,29.87,NNW,337,0.0,0.0,70,0.00,,,0.00,WUHU216DAVISVP2,2013-03-03 06:22:00,
2013-03-03 01:27:00,27.0,18.6,29.87,NNW,337,0.0,0.0,70,0.00,,,0.00,WUHU216DAVISVP2,2013-03-03 06:27:00,
2013-03-03 01:32:00,27.0,18.6,29.88,NNW,337,0.0,0.0,70,0.00,,,0.00,WUHU216DAVISVP2,2013-03-03 06:32:00,
2013-03-03 01:37:00,27.2,18.7,29.88,NNW,337,0.0,0.0,70,0.00,,,0.00,WUHU216DAVISVP2,2013-03-03 06:37:00,
2013-03-03 01:42:00,27.2,18.8,29.88,NNW,337,0.0,0.0,70,0.00,,,0.00,WUHU216DAVISVP2,2013-03-03 06:42:00,
2013-03-03 01:47:00,27.2,18.7,29.88,NNW,337,0.0,0.0,70,0.00,,,0.00,WUHU216DAVISVP2,2013-03-03 06:47:00,
2013-03-03 01:52:00,27.2,18.8,29.88,NNW,337,0.0,0.0,70,0.00,,,0.00,WUHU216DAVISVP2,2013-03-03 06:52:00,
2013-03-03 01:57:00,27.2,18.8,29.88,NNW,337,0.0,0.0,70,0.00,,,0.00,WUHU216DAVISVP2,2013-03-03 06:57:00,
2013-03-03 02:02:00,27.2,18.8,29.87,NNW,337,0.0,0.0,70,0.00,,,0.00,WUHU216DAVISVP2,2013-03-03 07:02:00,
2013-03-03 02:07:00,27.0,18.5,29.87,NNW,337,0.0,0.0,70,0.00,,,0.00,WUHU216DAVISVP2,2013-03-03 07:07:00,
2013-03-03 02:12:00,27.0,18.8,29.87,NNW,337,0.0,0.0,71,0.00,,,0.00,WUHU216DAVISVP2,2013-03-03 07:12:00,
2013-03-03 02:17:00,27.0,18.8,29.87,NNW,337,0.0,0.0,71,0.00,,,0.00,WUHU216DAVISVP2,2013-03-03 07:17:00,
2013-03-03 02:22:00,27.0,18.9,29.87,NNW,337,0.0,0.0,71,0.00,,,0.00,WUHU216DAVISVP2,2013-03-03 07:22:00,
2013-03-03 02:27:00,27.0,19.2,29.87,NNW,337,0.0,0.0,72,0.00,,,0.00,WUHU216DAVISVP2,2013-03-03 07:27:00,
2013-03-03 02:32:00,27.0,19.2,29.86,NNW,337,0.0,0.0,72,0.00,,,0.00,WUHU216DAVISVP2,2013-03-03 07:32:00,
2013-03-03 02:37:00,27.0,19.2,29.86,NNW,337,0.0,0.0,72,0.00,,,0.00,WUHU216DAVISVP2,2013-03-03 07:37:00,
2013-03-03 02:42:00,27.0,19.2,29.86,NNW,337,0.0,0.0,72,0.00,,,0.00,WUHU216DAVISVP2,2013-03-03 07:42:00,
2013-03-03 02:47:00,27.2,19.4,29.86,NNW,337,0.0,0.0,72,0.00,,,0.00,WUHU216DAVISVP2,2013-03-03 07:47:00,
2013-03-03 02:52:00,27.3,19.5,29.86,NNW,337,0.0,1.0,72,0.00,,,0.00,WUHU216DAVISVP2,2013-03-03 07:52:00,
2013-03-03 02:57:00,27.5,19.7,29.86,NNW,337,0.0,1.0,72,0.00,,,0.00,WUHU216DAVISVP2,2013-03-03 07:57:00,
2013-03-03 03:02:00,27.5,19.7,29.86,NNW,337,0.0,0.0,72,0.00,,,0.00,WUHU216DAVISVP2,2013-03-03 08:02:00,
2013-03-03 03:07:00,27.6,19.8,29.86,NNW,337,0.0,0.0,72,0.00,,,0.00,WUHU216DAVISVP2,2013-03-03 08:07:00,
2013-03-03 03:12:00,27.6,19.8,29.86,NNW,337,0.0,0.0,72,0.00,,,0.00,WUHU216DAVISVP2,2013-03-03 08:12:00,
2013-03-03 03:17:00,27.8,19.9,29.85,NNW,337,0.0,0.0,72,0.00,,,0.00,WUHU216DAVISVP2,2013-03-03 08:17:00,
2013-03-03 03:22:00,27.8,19.9,29.85,NNW,337,0.0,0.0,72,0.00,,,0.00,WUHU216DAVISVP2,2013-03-03 08:22:00,
2013-03-03 03:27:00,27.6,19.8,29.85,NNW,337,0.0,0.0,72,0.00,,,0.00,WUHU216DAVISVP2,2013-03-03 08:27:00,
2013-03-03 03:32:00,27.6,19.8,29.85,NNW,337,0.0,0.0,72,0.00,,,0.00,WUHU216DAVISVP2,2013-03-03 08:32:00,
2013-03-03 03:37:00,27.5,19.7,29.85,NNW,337,0.0,0.0,72,0.00,,,0.00,WUHU216DAVISVP2,2013-03-03 08:37:00,
2013-03-03 03:42:00,27.3,19.5,29.85,NNW,337,0.0,0.0,72,0.00,,,0.00,WUHU216DAVISVP2,2013-03-03 08:42:00,
2013-03-03 03:47:00,27.3,19.5,29.85,NNW,337,0.0,0.0,72,0.00,,,0.00,WUHU216DAVISVP2,2013-03-03 08:47:00,
2013-03-03 03:52:00,27.2,19.4,29.85,NNW,337,0.0,0.0,72,0.00,,,0.00,WUHU216DAVISVP2,2013-03-03 08:52:00,
2013-03-03 03:57:00,27.0,19.5,29.85,NNW,337,0.0,0.0,73,0.00,,,0.00,WUHU216DAVISVP2,2013-03-03 08:57:00,
2013-03-03 04:02:00,27.0,19.5,29.86,NNW,337,0.0,0.0,73,0.00,,,0.00,WUHU216DAVISVP2,2013-03-03 09:02:00,
2013-03-03 04:07:00,27.0,19.5,29.86,NNW,337,0.0,0.0,73,0.00,,,0.00,WUHU216DAVISVP2,2013-03-03 09:07:00,
2013-03-03 04:12:00,27.0,19.5,29.86,NNW,337,0.0,0.0,73,0.00,,,0.00,WUHU216DAVISVP2,2013-03-03 09:12:00,
2013-03-03 04:17:00,27.2,20.0,29.86,NNW,337,0.0,0.0,74,0.00,,,0.00,WUHU216DAVISVP2,2013-03-03 09:17:00,
2013-03-03 04:22:00,27.2,20.0,29.86,NNW,337,0.0,0.0,74,0.00,,,0.00,WUHU216DAVISVP2,2013-03-03 09:22:00,
2013-03-03 04:28:00,27.3,20.1,29.86,NNW,337,0.0,0.0,74,0.00,,,0.00,WUHU216DAVISVP2,2013-03-03 09:28:00,
2013-03-03 04:33:00,27.3,20.1,29.86,NNW,337,0.0,0.0,74,0.00,,,0.00,WUHU216DAVISVP2,2013-03-03 09:33:00,
2013-03-03 04:38:00,27.5,20.3,29.86,NNW,337,0.0,0.0,74,0.00,,,0.00,WUHU216DAVISVP2,2013-03-03 09:38:00,
2013-03-03 04:43:00,27.5,20.3,29.86,NNW,337,0.0,0.0,74,0.00,,,0.00,WUHU216DAVISVP2,2013-03-03 09:43:00,
2013-03-03 04:48:00,27.6,20.4,29.86,NNW,337,0.0,0.0,74,0.00,,,0.00,WUHU216DAVISVP2,2013-03-03 09:48:00,
2013-03-03 04:53:00,27.6,20.4,29.86,NNW,337,0.0,0.0,74,0.00,,,0.00,WUHU216DAVISVP2,2013-03-03 09:53:00,
2013-03-03 04:58:00,27.6,20.4,29.86,NNW,337,0.0,0.0,74,0.00,,,0.00,WUHU216DAVISVP2,2013-03-03 09:58:00,
2013-03-03 05:03:00,27.8,20.6,29.87,NNW,337,0.0,0.0,74,0.00,,,0.00,WUHU216DAVISVP2,2013-03-03 10:03:00,
2013-03-03 05:08:00,27.8,20.6,29.87,NNW,337,0.0,0.0,74,0.00,,,0.00,WUHU216DAVISVP2,2013-03-03 10:08:00,
2013-03-03 05:13:00,27.8,20.6,29.87,NNW,337,0.0,0.0,74,0.00,,,0.00,WUHU216DAVISVP2,2013-03-03 10:13:00,
2013-03-03 05:18:00,27.8,20.6,29.87,NNW,337,0.0,0.0,74,0.00,,,0.00,WUHU216DAVISVP2,2013-03-03 10:18:00,
2013-03-03 05:23:00,28.1,20.9,29.87,NNW,337,0.0,0.0,74,0.00,,,0.00,WUHU216DAVISVP2,2013-03-03 10:23:00,
2013-03-03 05:28:00,28.1,20.9,29.87,NNW,337,0.0,0.0,74,0.00,,,0.00,WUHU216DAVISVP2,2013-03-03 10:28:00,
2013-03-03 05:33:00,28.2,21.3,29.88,NNW,337,0.0,0.0,75,0.00,,,0.00,WUHU216DAVISVP2,2013-03-03 10:33:00,
2013-03-03 05:38:00,28.2,21.3,29.88,NNW,337,0.0,0.0,75,0.00,,,0.00,WUHU216DAVISVP2,2013-03-03 10:38:00,
2013-03-03 05:43:00,28.4,21.5,29.88,NNW,337,0.0,0.0,75,0.00,,,0.00,WUHU216DAVISVP2,2013-03-03 10:43:00,
2013-03-03 05:48:00,28.4,21.5,29.88,NNW,337,0.0,0.0,75,0.00,,,0.00,WUHU216DAVISVP2,2013-03-03 10:48:00,
2013-03-03 05:53:00,28.4,21.5,29.88,NNW,337,0.0,0.0,75,0.00,,,0.00,WUHU216DAVISVP2,2013-03-03 10:53:00,
2013-03-03 05:58:00,28.5,21.6,29.88,NNW,337,0.0,0.0,75,0.00,,,0.00,WUHU216DAVISVP2,2013-03-03 10:58:00,
2013-03-03 06:03:00,28.7,21.8,29.89,NNW,337,0.0,0.0,75,0.00,,,0.00,WUHU216DAVISVP2,2013-03-03 11:03:00,
2013-03-03 06:08:00,28.7,21.8,29.89,NNW,337,0.0,0.0,75,0.00,,,0.00,WUHU216DAVISVP2,2013-03-03 11:08:00,
2013-03-03 06:13:00,28.7,21.8,29.89,NNW,337,0.0,0.0,75,0.00,,,0.00,WUHU216DAVISVP2,2013-03-03 11:13:00,
2013-03-03 06:18:00,28.7,21.8,29.89,NNW,337,0.0,0.0,75,0.00,,,0.00,WUHU216DAVISVP2,2013-03-03 11:18:00,
2013-03-03 06:23:00,28.7,21.5,29.89,NNW,337,0.0,1.0,74,0.00,,,0.00,WUHU216DAVISVP2,2013-03-03 11:23:00,
2013-03-03 06:28:00,28.7,21.5,29.89,NNW,337,0.0,1.0,74,0.00,,,0.00,WUHU216DAVISVP2,2013-03-03 11:28:00,
2013-03-03 06:33:00,28.8,21.3,29.89,NNW,337,0.0,1.0,73,0.00,,,0.00,WUHU216DAVISVP2,2013-03-03 11:33:00,
2013-03-03 06:38:00,29.0,21.8,29.89,NNW,337,0.0,2.0,74,0.00,,,0.00,WUHU216DAVISVP2,2013-03-03 11:38:00,
2013-03-03 06:43:00,29.1,21.6,29.89,NNW,333,0.0,2.0,73,0.00,,,0.00,WUHU216DAVISVP2,2013-03-03 11:43:00,
2013-03-03 06:48:00,29.1,21.6,29.89,NNW,333,0.0,1.0,73,0.00,,,0.00,WUHU216DAVISVP2,2013-03-03 11:48:00,
2013-03-03 06:53:00,29.5,21.6,29.89,North,350,0.0,6.0,72,0.00,,,0.00,WUHU216DAVISVP2,2013-03-03 11:53:00,
2013-03-03 06:58:00,29.7,21.5,29.89,North,349,0.0,6.0,71,0.00,,,0.00,WUHU216DAVISVP2,2013-03-03 11:58:00,
2013-03-03 07:03:00,29.8,21.3,29.89,NNW,346,0.0,2.0,70,0.00,,,0.00,WUHU216DAVISVP2,2013-03-03 12:03:00,
2013-03-03 07:08:00,30.0,21.5,29.89,NNW,346,0.0,2.0,70,0.00,,,0.00,WUHU216DAVISVP2,2013-03-03 12:08:00,
2013-03-03 07:13:00,30.1,21.6,29.89,NNW,344,0.0,2.0,70,0.00,,,0.00,WUHU216DAVISVP2,2013-03-03 12:13:00,
2013-03-03 07:18:00,30.1,21.2,29.90,NNW,343,0.0,2.0,69,0.00,,,0.00,WUHU216DAVISVP2,2013-03-03 12:18:00,
2013-03-03 07:23:00,30.1,21.2,29.90,NNW,343,0.0,2.0,69,0.00,,,0.00,WUHU216DAVISVP2,2013-03-03 12:23:00,
2013-03-03 07:28:00,30.1,21.2,29.90,NNW,343,0.0,1.0,69,0.00,,,0.00,WUHU216DAVISVP2,2013-03-03 12:28:00,
2013-03-03 07:33:00,30.1,20.9,29.90,NNW,343,0.0,1.0,68,0.00,,,0.00,WUHU216DAVISVP2,2013-03-03 12:33:00,
2013-03-03 07:38:00,30.1,20.9,29.90,NNW,343,0.0,1.0,68,0.00,,,0.00,WUHU216DAVISVP2,2013-03-03 12:38:00,
2013-03-03 07:43:00,30.0,20.8,29.90,NNW,342,0.0,1.0,68,0.00,,,0.00,WUHU216DAVISVP2,2013-03-03 12:43:00,
2013-03-03 07:48:00,30.0,20.8,29.91,NNW,347,0.0,1.0,68,0.00,,,0.00,WUHU216DAVISVP2,2013-03-03 12:48:00,
2013-03-03 07:53:00,30.0,20.8,29.91,NNW,346,0.0,1.0,68,0.00,,,0.00,WUHU216DAVISVP2,2013-03-03 12:53:00,
2013-03-03 07:58:00,30.0,21.1,29.91,NNW,346,0.0,1.0,69,0.00,,,0.00,WUHU216DAVISVP2,2013-03-03 12:58:00,
2013-03-03 08:03:00,29.8,20.9,29.91,NNW,346,0.0,0.0,69,0.00,,,0.00,WUHU216DAVISVP2,2013-03-03 13:03:00,
2013-03-03 08:08:00,30.0,20.8,29.91,NNW,346,0.0,1.0,68,0.00,,,0.00,WUHU216DAVISVP2,2013-03-03 13:08:00,
2013-03-03 08:13:00,30.1,20.9,29.91,NNW,346,0.0,1.0,68,0.00,,,0.00,WUHU216DAVISVP2,2013-03-03 13:13:00,
2013-03-03 08:18:00,30.3,20.6,29.92,NNW,346,0.0,1.0,67,0.00,,,0.00,WUHU216DAVISVP2,2013-03-03 13:18:00,
2013-03-03 08:23:00,30.6,20.9,29.92,NNW,346,0.0,2.0,67,0.00,,,0.00,WUHU216DAVISVP2,2013-03-03 13:23:00,
2013-03-03 08:28:00,30.9,21.3,29.92,NNW,346,0.0,2.0,67,0.00,,,0.00,WUHU216DAVISVP2,2013-03-03 13:28:00,
2013-03-03 08:33:00,31.3,21.7,29.92,NW,313,1.0,2.0,67,0.00,,,0.00,WUHU216DAVISVP2,2013-03-03 13:33:00,
2013-03-03 08:38:00,32.2,22.2,29.92,North,359,2.0,7.0,66,0.00,,,0.00,WUHU216DAVISVP2,2013-03-03 13:38:00,
2013-03-03 08:43:00,32.8,22.8,29.92,North,350,0.0,8.0,66,0.00,,,0.00,WUHU216DAVISVP2,2013-03-03 13:43:00,
2013-03-03 08:48:00,33.5,23.4,29.92,North,349,2.0,8.0,66,0.00,,,0.00,WUHU216DAVISVP2,2013-03-03 13:48:00,
2013-03-03 08:53:00,33.5,23.4,29.92,WNW,298,6.0,7.0,66,0.00,,,0.00,WUHU216DAVISVP2,2013-03-03 13:53:00,
2013-03-03 08:58:00,34.9,23.3,29.92,North,0,4.0,8.0,62,0.00,,,0.00,WUHU216DAVISVP2,2013-03-03 13:58:00,
2013-03-03 09:03:00,35.3,22.8,29.91,NNW,339,2.0,9.0,60,0.00,,,0.00,WUHU216DAVISVP2,2013-03-03 14:03:00,
2013-03-03 09:08:00,35.9,23.4,29.91,North,353,2.0,9.0,60,0.00,,,0.00,WUHU216DAVISVP2,2013-03-03 14:08:00,
2013-03-03 09:13:00,36.2,23.6,29.91,North,6,4.0,7.0,60,0.00,,,0.00,WUHU216DAVISVP2,2013-03-03 14:13:00,
2013-03-03 09:18:00,36.5,23.2,29.91,WNW,298,4.0,7.0,58,0.00,,,0.00,WUHU216DAVISVP2,2013-03-03 14:18:00,
2013-03-03 09:23:00,36.8,23.4,29.91,NNW,346,2.0,7.0,58,0.00,,,0.00,WUHU216DAVISVP2,2013-03-03 14:23:00,
2013-03-03 09:28:00,37.2,23.4,29.91,WNW,295,6.0,9.0,57,0.00,,,0.00,WUHU216DAVISVP2,2013-03-03 14:28:00,
2013-03-03 09:33:00,37.3,23.5,29.91,WNW,294,4.0,9.0,57,0.00,,,0.00,WUHU216DAVISVP2,2013-03-03 14:33:00,
2013-03-03 09:38:00,37.6,23.3,29.91,North,1,0.0,8.0,56,0.00,,,0.00,WUHU216DAVISVP2,2013-03-03 14:38:00,
2013-03-03 09:43:00,37.9,23.2,29.91,NNW,344,2.0,9.0,55,0.00,,,0.00,WUHU216DAVISVP2,2013-03-03 14:43:00,
2013-03-03 09:48:00,38.0,23.3,29.90,North,354,4.0,9.0,55,0.00,,,0.00,WUHU216DAVISVP2,2013-03-03 14:48:00,
2013-03-03 09:53:00,38.2,23.5,29.90,NW,313,2.0,11.0,55,0.00,,,0.00,WUHU216DAVISVP2,2013-03-03 14:53:00,
2013-03-03 09:58:00,37.9,22.7,29.90,North,359,1.0,11.0,54,0.00,,,0.00,WUHU216DAVISVP2,2013-03-03 14:58:00,
2013-03-03 10:03:00,38.3,23.5,29.90,NW,319,7.0,9.0,55,0.00,,,0.00,WUHU216DAVISVP2,2013-03-03 15:03:00,
2013-03-03 10:08:00,38.3,23.6,29.90,WNW,294,1.0,8.0,55,0.00,,,0.00,WUHU216DAVISVP2,2013-03-03 15:08:00,
2013-03-03 10:13:00,39.2,24.4,29.90,North,354,1.0,6.0,55,0.00,,,0.00,WUHU216DAVISVP2,2013-03-03 15:13:00,
2013-03-03 10:18:00,39.3,24.5,29.90,NNW,332,0.0,6.0,55,0.00,,,0.00,WUHU216DAVISVP2,2013-03-03 15:18:00,
2013-03-03 10:23:00,39.3,24.5,29.90,WNW,284,0.0,7.0,55,0.00,,,0.00,WUHU216DAVISVP2,2013-03-03 15:23:00,
2013-03-03 10:28:00,39.2,24.4,29.90,NW,308,4.0,7.0,55,0.00,,,0.00,WUHU216DAVISVP2,2013-03-03 15:28:00,
2013-03-03 10:33:00,39.6,24.8,29.90,North,1,7.0,7.0,55,0.00,,,0.00,WUHU216DAVISVP2,2013-03-03 15:33:00,
2013-03-03 10:38:00,40.1,23.4,29.90,NW,319,1.0,7.0,51,0.00,,,0.00,WUHU216DAVISVP2,2013-03-03 15:38:00,
2013-03-03 10:43:00,39.6,22.9,29.90,NNW,339,6.0,9.0,51,0.00,,,0.00,WUHU216DAVISVP2,2013-03-03 15:43:00,
2013-03-03 10:48:00,39.6,22.9,29.90,NNW,339,1.0,9.0,51,0.00,,,0.00,WUHU216DAVISVP2,2013-03-03 15:48:00,
2013-03-03 10:53:00,40.3,24.5,29.90,NW,318,6.0,8.0,53,0.00,,,0.00,WUHU216DAVISVP2,2013-03-03 15:53:00,
2013-03-03 10:58:00,40.5,23.3,29.90,WNW,299,6.0,10.0,50,0.00,,,0.00,WUHU216DAVISVP2,2013-03-03 15:58:00,
2013-03-03 11:03:00,39.9,22.7,29.90,WNW,284,2.0,10.0,50,0.00,,,0.00,WUHU216DAVISVP2,2013-03-03 16:03:00,
2013-03-03 11:08:00,39.9,22.7,29.90,North,3,1.0,8.0,50,0.00,,,0.00,WUHU216DAVISVP2,2013-03-03 16:08:00,
2013-03-03 11:13:00,40.1,22.4,29.90,North,0,4.0,13.0,49,0.00,,,0.00,WUHU216DAVISVP2,2013-03-03 16:13:00,
2013-03-03 11:18:00,40.1,22.9,29.90,North,359,1.0,13.0,50,0.00,,,0.00,WUHU216DAVISVP2,2013-03-03 16:18:00,
2013-03-03 11:23:00,40.2,23.0,29.90,North,8,6.0,7.0,50,0.00,,,0.00,WUHU216DAVISVP2,2013-03-03 16:23:00,
2013-03-03 11:28:00,40.8,23.5,29.90,West,278,2.0,7.0,50,0.00,,,0.00,WUHU216DAVISVP2,2013-03-03 16:28:00,
2013-03-03 11:33:00,40.9,22.1,29.89,NW,305,0.0,7.0,47,0.00,,,0.00,WUHU216DAVISVP2,2013-03-03 16:33:00,
2013-03-03 11:38:00,41.2,23.4,29.89,NNE,16,2.0,11.0,49,0.00,,,0.00,WUHU216DAVISVP2,2013-03-03 16:38:00,
2013-03-03 11:43:00,41.3,22.5,29.89,NW,304,0.0,11.0,47,0.00,,,0.00,WUHU216DAVISVP2,2013-03-03 16:43:00,
2013-03-03 11:48:00,41.9,23.6,29.88,North,357,1.0,9.0,48,0.00,,,0.00,WUHU216DAVISVP2,2013-03-03 16:48:00,
2013-03-03 11:53:00,41.8,22.9,29.88,North,1,2.0,9.0,47,0.00,,,0.00,WUHU216DAVISVP2,2013-03-03 16:53:00,
2013-03-03 11:58:00,42.3,22.9,29.88,East,92,2.0,9.0,46,0.00,,,0.00,WUHU216DAVISVP2,2013-03-03 16:58:00,
2013-03-03 12:03:00,42.9,23.4,29.88,WNW,295,7.0,10.0,46,0.00,,,0.00,WUHU216DAVISVP2,2013-03-03 17:03:00,
2013-03-03 12:08:00,43.1,23.6,29.88,WNW,298,1.0,11.0,46,0.00,,,0.00,WUHU216DAVISVP2,2013-03-03 17:08:00,
2013-03-03 12:13:00,43.1,23.1,29.88,WNW,294,2.0,11.0,45,0.00,,,0.00,WUHU216DAVISVP2,2013-03-03 17:13:00,
2013-03-03 12:18:00,42.6,22.1,29.87,NNE,20,7.0,8.0,44,0.00,,,0.00,WUHU216DAVISVP2,2013-03-03 17:18:00,
2013-03-03 12:23:00,42.2,22.2,29.87,NNW,343,1.0,7.0,45,0.00,,,0.00,WUHU216DAVISVP2,2013-03-03 17:23:00,
2013-03-03 12:28:00,42.5,22.5,29.87,NNW,344,9.0,9.0,45,0.00,,,0.00,WUHU216DAVISVP2,2013-03-03 17:28:00,
2013-03-03 12:33:00,42.9,22.9,29.87,NNW,337,2.0,10.0,45,0.00,,,0.00,WUHU216DAVISVP2,2013-03-03 17:33:00,
2013-03-03 12:38:00,43.5,23.4,29.87,North,11,6.0,11.0,45,0.00,,,0.00,WUHU216DAVISVP2,2013-03-03 17:38:00,
2013-03-03 12:43:00,43.5,23.4,29.87,North,354,2.0,11.0,45,0.00,,,0.00,WUHU216DAVISVP2,2013-03-03 17:43:00,
2013-03-03 12:48:00,43.5,22.9,29.86,North,350,2.0,9.0,44,0.00,,,0.00,WUHU216DAVISVP2,2013-03-03 17:48:00,
2013-03-03 12:53:00,43.6,23.0,29.86,North,357,1.0,11.0,44,0.00,,,0.00,WUHU216DAVISVP2,2013-03-03 17:53:00,
2013-03-03 12:58:00,42.8,21.7,29.86,North,8,2.0,11.0,43,0.00,,,0.00,WUHU216DAVISVP2,2013-03-03 17:58:00,
2013-03-03 13:03:00,42.6,22.6,29.85,NNW,346,2.0,8.0,45,0.00,,,0.00,WUHU216DAVISVP2,2013-03-03 18:03:00,
2013-03-03 13:08:00,42.9,22.3,29.85,NNW,346,0.0,10.0,44,0.00,,,0.00,WUHU216DAVISVP2,2013-03-03 18:08:00,
2013-03-03 13:13:00,43.1,22.5,29.85,NW,319,1.0,10.0,44,0.00,,,0.00,WUHU216DAVISVP2,2013-03-03 18:13:00,
2013-03-03 13:18:00,43.8,22.6,29.85,North,1,4.0,8.0,43,0.00,,,0.00,WUHU216DAVISVP2,2013-03-03 18:18:00,
2013-03-03 13:23:00,43.8,22.6,29.85,NNE,25,4.0,14.0,43,0.00,,,0.00,WUHU216DAVISVP2,2013-03-03 18:23:00,
2013-03-03 13:28:00,43.9,23.2,29.85,NE,49,1.0,14.0,44,0.00,,,0.00,WUHU216DAVISVP2,2013-03-03 18:28:00,
2013-03-03 13:33:00,44.2,23.0,29.84,North,359,1.0,7.0,43,0.00,,,0.00,WUHU216DAVISVP2,2013-03-03 18:33:00,
2013-03-03 13:38:00,44.2,23.0,29.84,North,353,4.0,7.0,43,0.00,,,0.00,WUHU216DAVISVP2,2013-03-03 18:38:00,
2013-03-03 13:43:00,44.2,22.4,29.84,NNW,335,4.0,9.0,42,0.00,,,0.00,WUHU216DAVISVP2,2013-03-03 18:43:00,
2013-03-03 13:48:00,43.6,21.8,29.83,NW,326,1.0,9.0,42,0.00,,,0.00,WUHU216DAVISVP2,2013-03-03 18:48:00,
2013-03-03 13:53:00,43.6,21.8,29.83,NNW,340,1.0,8.0,42,0.00,,,0.00,WUHU216DAVISVP2,2013-03-03 18:53:00,
2013-03-03 13:58:00,43.2,21.5,29.83,WNW,299,1.0,9.0,42,0.00,,,0.00,WUHU216DAVISVP2,2013-03-03 18:58:00,
2013-03-03 14:03:00,43.6,22.4,29.83,NNW,336,1.0,9.0,43,0.00,,,0.00,WUHU216DAVISVP2,2013-03-03 19:03:00,
2013-03-03 14:08:00,44.1,22.3,29.83,NW,326,0.0,8.0,42,0.00,,,0.00,WUHU216DAVISVP2,2013-03-03 19:08:00,
2013-03-03 14:13:00,44.8,22.9,29.83,South,169,2.0,11.0,42,0.00,,,0.00,WUHU216DAVISVP2,2013-03-03 19:13:00,
2013-03-03 14:18:00,44.6,21.6,29.82,West,261,1.0,11.0,40,0.00,,,0.00,WUHU216DAVISVP2,2013-03-03 19:18:00,
2013-03-03 14:23:00,44.6,21.6,29.82,SW,219,10.0,10.0,40,0.00,,,0.00,WUHU216DAVISVP2,2013-03-03 19:23:00,
2013-03-03 14:28:00,44.6,21.6,29.82,SW,219,10.0,10.0,40,0.00,,,0.00,WUHU216DAVISVP2,2013-03-03 19:28:00,
2013-03-03 14:33:00,44.6,21.6,29.82,SW,219,10.0,10.0,40,0.00,,,0.00,WUHU216DAVISVP2,2013-03-03 19:33:00,
2013-03-03 17:32:00,42.3,20.1,29.84,NNW,344,9.0,9.0,41,0.00,,,0.00,WUHU216DAVISVP2,2013-03-03 22:32:00,
2013-03-03 17:37:00,42.3,20.1,29.84,NW,312,4.0,9.0,41,0.00,,,0.00,WUHU216DAVISVP2,2013-03-03 22:37:00,
2013-03-03 17:42:00,41.8,19.6,29.84,NNW,332,2.0,9.0,41,0.00,,,0.00,WUHU216DAVISVP2,2013-03-03 22:42:00,
2013-03-03 17:47:00,41.8,19.6,29.84,NW,312,6.0,6.0,41,0.00,,,0.00,WUHU216DAVISVP2,2013-03-03 22:47:00,
2013-03-03 17:52:00,41.5,19.4,29.84,SW,236,1.0,6.0,41,0.00,,,0.00,WUHU216DAVISVP2,2013-03-03 22:52:00,
2013-03-03 17:57:00,41.1,19.0,29.84,North,357,6.0,8.0,41,0.00,,,0.00,WUHU216DAVISVP2,2013-03-03 22:57:00,
2013-03-03 18:02:00,41.1,19.0,29.85,NNW,332,2.0,8.0,41,0.00,,,0.00,WUHU216DAVISVP2,2013-03-03 23:02:00,
2013-03-03 18:07:00,40.3,20.5,29.85,NNW,347,2.0,11.0,45,0.00,,,0.00,WUHU216DAVISVP2,2013-03-03 23:07:00,
2013-03-03 18:12:00,40.1,20.3,29.85,NNW,346,6.0,11.0,45,0.00,,,0.00,WUHU216DAVISVP2,2013-03-03 23:12:00,
2013-03-03 18:17:00,39.6,19.9,29.86,WNW,289,7.0,8.0,45,0.00,,,0.00,WUHU216DAVISVP2,2013-03-03 23:17:00,
2013-03-03 18:22:00,39.5,20.3,29.86,WNW,302,4.0,7.0,46,0.00,,,0.00,WUHU216DAVISVP2,2013-03-03 23:22:00,
2013-03-03 18:27:00,39.2,20.0,29.86,NNW,339,2.0,7.0,46,0.00,,,0.00,WUHU216DAVISVP2,2013-03-03 23:27:00,
2013-03-03 18:32:00,38.9,19.8,29.87,North,350,4.0,7.0,46,0.00,,,0.00,WUHU216DAVISVP2,2013-03-03 23:32:00,
2013-03-03 18:37:00,38.9,19.8,29.87,North,350,4.0,7.0,46,0.00,,,0.00,WUHU216DAVISVP2,2013-03-03 23:37:00,
2013-03-03 18:42:00,38.9,19.9,29.87,North,350,4.0,4.0,46,0.00,,,0.00,WUHU216DAVISVP2,2013-03-03 23:42:00,
2013-03-03 19:07:00,37.0,19.6,29.89,North,350,2.0,2.0,49,0.00,,,0.00,WUHU216DAVISVP2,2013-03-04 00:07:00,
2013-03-03 19:12:00,36.6,19.2,29.89,NW,320,6.0,10.0,49,0.00,,,0.00,WUHU216DAVISVP2,2013-03-04 00:12:00,
2013-03-03 19:17:00,36.5,19.1,29.89,NW,309,1.0,10.0,49,0.00,,,0.00,WUHU216DAVISVP2,2013-03-04 00:17:00,
2013-03-03 19:22:00,36.2,18.8,29.89,WNW,291,1.0,9.0,49,0.00,,,0.00,WUHU216DAVISVP2,2013-03-04 00:22:00,
2013-03-03 19:27:00,36.0,18.6,29.89,NNW,344,1.0,9.0,49,0.00,,,0.00,WUHU216DAVISVP2,2013-03-04 00:27:00,
2013-03-03 19:32:00,35.8,18.4,29.90,NW,304,4.0,10.0,49,0.00,,,0.00,WUHU216DAVISVP2,2013-03-04 00:32:00,
2013-03-03 19:38:00,35.6,18.7,29.90,NNW,336,6.0,10.0,50,0.00,,,0.00,WUHU216DAVISVP2,2013-03-04 00:38:00,
2013-03-03 19:43:00,35.3,18.4,29.90,NNW,328,2.0,8.0,50,0.00,,,0.00,WUHU216DAVISVP2,2013-03-04 00:43:00,
2013-03-03 19:48:00,35.2,18.4,29.91,NNW,332,1.0,6.0,50,0.00,,,0.00,WUHU216DAVISVP2,2013-03-04 00:48:00,
2013-03-03 19:53:00,35.0,18.2,29.91,North,0,1.0,6.0,50,0.00,,,0.00,WUHU216DAVISVP2,2013-03-04 00:53:00,
2013-03-03 19:58:00,34.7,18.4,29.91,North,349,0.0,6.0,51,0.00,,,0.00,WUHU216DAVISVP2,2013-03-04 00:58:00,
2013-03-03 20:03:00,34.6,18.3,29.92,NNW,329,1.0,4.0,51,0.00,,,0.00,WUHU216DAVISVP2,2013-03-04 01:03:00,
2013-03-03 20:08:00,34.4,18.1,29.92,North,356,4.0,8.0,51,0.00,,,0.00,WUHU216DAVISVP2,2013-03-04 01:08:00,
2013-03-03 20:13:00,34.3,18.5,29.92,NNW,330,1.0,8.0,52,0.00,,,0.00,WUHU216DAVISVP2,2013-03-04 01:13:00,
2013-03-03 20:18:00,34.1,18.3,29.92,NNW,328,1.0,7.0,52,0.00,,,0.00,WUHU216DAVISVP2,2013-03-04 01:18:00,
2013-03-03 20:23:00,34.0,18.2,29.92,NW,308,1.0,7.0,52,0.00,,,0.00,WUHU216DAVISVP2,2013-03-04 01:23:00,
2013-03-03 20:28:00,33.8,18.0,29.92,NNW,330,8.0,10.0,52,0.00,,,0.00,WUHU216DAVISVP2,2013-03-04 01:28:00,
2013-03-03 20:33:00,33.7,17.9,29.92,North,0,1.0,10.0,52,0.00,,,0.00,WUHU216DAVISVP2,2013-03-04 01:33:00,
2013-03-03 20:38:00,33.5,17.7,29.92,NNW,328,0.0,9.0,52,0.00,,,0.00,WUHU216DAVISVP2,2013-03-04 01:38:00,
2013-03-03 20:43:00,33.5,17.7,29.92,NNW,342,4.0,6.0,52,0.00,,,0.00,WUHU216DAVISVP2,2013-03-04 01:43:00,
2013-03-03 20:48:00,33.4,17.6,29.92,North,359,6.0,10.0,52,0.00,,,0.00,WUHU216DAVISVP2,2013-03-04 01:48:00,
2013-03-03 20:53:00,33.2,17.4,29.92,North,0,1.0,10.0,52,0.00,,,0.00,WUHU216DAVISVP2,2013-03-04 01:53:00,
2013-03-03 20:58:00,33.1,17.3,29.92,NW,313,4.0,9.0,52,0.00,,,0.00,WUHU216DAVISVP2,2013-03-04 01:58:00,
2013-03-03 21:03:00,33.1,16.9,29.93,NW,319,2.0,10.0,51,0.00,,,0.00,WUHU216DAVISVP2,2013-03-04 02:03:00,
2013-03-03 21:08:00,33.1,16.9,29.93,North,6,8.0,10.0,51,0.00,,,0.00,WUHU216DAVISVP2,2013-03-04 02:08:00,
2013-03-03 21:13:00,33.1,16.9,29.93,NW,304,7.0,14.0,51,0.00,,,0.00,WUHU216DAVISVP2,2013-03-04 02:13:00,
2013-03-03 21:18:00,33.1,16.9,29.93,North,6,4.0,14.0,51,0.00,,,0.00,WUHU216DAVISVP2,2013-03-04 02:18:00,
2013-03-03 21:23:00,32.9,16.7,29.93,NNW,335,6.0,10.0,51,0.00,,,0.00,WUHU216DAVISVP2,2013-03-04 02:23:00,
2013-03-03 21:28:00,32.9,16.7,29.93,NNW,329,0.0,6.0,51,0.00,,,0.00,WUHU216DAVISVP2,2013-03-04 02:28:00,
2013-03-03 21:33:00,32.9,16.7,29.94,NNW,343,0.0,7.0,51,0.00,,,0.00,WUHU216DAVISVP2,2013-03-04 02:33:00,
2013-03-03 21:38:00,32.5,16.3,29.94,NNW,335,0.0,7.0,51,0.00,,,0.00,WUHU216DAVISVP2,2013-03-04 02:38:00,
2013-03-03 21:43:00,32.5,16.3,29.94,NNW,332,1.0,2.0,51,0.00,,,0.00,WUHU216DAVISVP2,2013-03-04 02:43:00,
2013-03-03 21:48:00,32.5,16.3,29.94,West,281,6.0,6.0,51,0.00,,,0.00,WUHU216DAVISVP2,2013-03-04 02:48:00,
2013-03-03 21:53:00,32.5,16.3,29.94,West,281,6.0,6.0,51,0.00,,,0.00,WUHU216DAVISVP2,2013-03-04 02:53:00,